This is the latest recevied weather packets stored in our database for station/object F4IVW-13. If no packets are shown the sender has not sent any weather packets the latest 10 day(s).
| Time | Temp. | Humidity | Pressure | Rain* | Wind** | Luminosity | Snow |
|---|---|---|---|---|---|---|---|
| 1777711724 | 20.56° C | 99% | 1018 hPa | 0 mm | - | 18 W/m² | - |
| 1777711406 | 20° C | 99% | 1018 hPa | 0 mm | - | 12 W/m² | - |
| 1777711097 | 20° C | 99% | 1018 hPa | 0 mm | - | 10 W/m² | - |
| 1777710771 | 20° C | 99% | 1018 hPa | 0 mm | - | 4 W/m² | - |
| 1777710454 | 20° C | 99% | 1017.9 hPa | 0 mm | - | 5 W/m² | - |
| 1777710137 | 19.44° C | 99% | 1018 hPa | 0 mm | - | 9 W/m² | - |
| 1777709820 | 20° C | 99% | 1017.9 hPa | 0 mm | - | 15 W/m² | - |
| 1777709504 | 20° C | 99% | 1017.9 hPa | 0 mm | - | 10 W/m² | - |
| 1777709198 | 20° C | 99% | 1017.9 hPa | 0 mm | - | 10 W/m² | - |
| 1777708868 | 20° C | 99% | 1017.9 hPa | 0 mm | - | 64 W/m² | - |
| 1777708549 | 20.56° C | 99% | 1017.8 hPa | 0 mm | - | 12 W/m² | - |
| 1777708233 | 21.11° C | 99% | 1017.8 hPa | 0 mm | - | 21 W/m² | - |
| 1777707915 | 20.56° C | 99% | 1017.7 hPa | 0 mm | - | 28 W/m² | - |
| 1777707598 | 20° C | 99% | 1017.6 hPa | 0 mm | - | 72 W/m² | - |
| 1777707289 | 19.44° C | 99% | 1017.6 hPa | 0 mm | - | 61 W/m² | - |
| 1777706964 | 18.89° C | 99% | 1017.7 hPa | 0 mm | - | 63 W/m² | - |
| 1777706644 | 17.78° C | 99% | 1017.8 hPa | 0 mm | - | 54 W/m² | - |
| 1777706325 | 17.22° C | 99% | 1017.8 hPa | 0 mm | - | 51 W/m² | - |
| 1777706006 | 17.22° C | 99% | 1017.8 hPa | 0 mm | - | 36 W/m² | - |
| 1777705689 | 18.33° C | 99% | 1017.9 hPa | 0 mm | - | 8 W/m² | - |
| 1777705380 | 18.89° C | 99% | 1017.9 hPa | 0 mm | - | 9 W/m² | - |
| 1777705054 | 18.33° C | 99% | 1017.8 hPa | 0 mm | - | 30 W/m² | - |
| 1777704737 | 17.78° C | 99% | 1017.9 hPa | 0 mm | - | 51 W/m² | - |
| 1777704420 | 15.56° C | 99% | 1017.9 hPa | 0 mm | - | 47 W/m² | - |
| 1777704102 | 13.89° C | 99% | 1017.9 hPa | 0 mm | - | 48 W/m² | - |
* Rain latest hour (hover to see other rain measurements)
** Current wind speed in m/s (hover to see current wind gust speed)